Hourly Weather Działoszyce

Today, 6 May, Thursday

Time Temperature Precipitation Wind Pressure Humidity
00:00 +4°C° 0.1 mm 6 mps 734 mmHg 85%
01:00 +3°C° 0 mm 6 mps 735 mmHg 86%
02:00 +2°C° 0 mm 6 mps 735 mmHg 87%
03:00 +2°C° 0 mm 6 mps 735 mmHg 88%
04:00 +1°C° 0 mm 6 mps 736 mmHg 89%
05:00 +2°C° 0 mm 6 mps 736 mmHg 84%
06:00 +3°C° 0 mm 6 mps 737 mmHg 80%
07:00 +4°C° 0 mm 6 mps 737 mmHg 76%
08:00 +7°C° 0 mm 6 mps 737 mmHg 68%
09:00 +8°C° 0 mm 6 mps 737 mmHg 60%
10:00 +9°C° 0 mm 6 mps 737 mmHg 53%
11:00 +10°C° 0 mm 6 mps 737 mmHg 52%
12:00 +10°C° 0 mm 6 mps 737 mmHg 52%
13:00 +11°C° 0 mm 6 mps 737 mmHg 51%
14:00 +11°C° 0.1 mm 6 mps 737 mmHg 55%
15:00 +10°C° 0.1 mm 6 mps 736 mmHg 59%
16:00 +10°C° 0.1 mm 6 mps 736 mmHg 63%
17:00 +9°C° 0.1 mm 6 mps 736 mmHg 69%
18:00 +8°C° 0.1 mm 5 mps 736 mmHg 74%
19:00 +7°C° 0.1 mm 4 mps 736 mmHg 79%
20:00 +6°C° 0 mm 4 mps 736 mmHg 81%
21:00 +7°C° 0 mm 3 mps 736 mmHg 83%
22:00 +5°C° 0 mm 3 mps 736 mmHg 85%
23:00 +6°C° 0 mm 2 mps 735 mmHg 84%

Tomorrow, 7 May, Friday

Time Temperature Precipitation Wind Pressure Humidity
00:00 +6°C° 0 mm 2 mps 735 mmHg 83%
01:00 +7°C° 0 mm 1 mps 734 mmHg 81%
02:00 +7°C° 0.4 mm 1 mps 734 mmHg 83%
03:00 +7°C° 0.4 mm 1 mps 733 mmHg 86%
04:00 +7°C° 0.4 mm 1 mps 733 mmHg 88%
05:00 +7°C° 0.1 mm 2 mps 733 mmHg 87%
06:00 +7°C° 0.1 mm 2 mps 733 mmHg 87%
07:00 +8°C° 0.1 mm 3 mps 733 mmHg 86%
08:00 +8°C° 0.1 mm 5 mps 732 mmHg 80%
09:00 +10°C° 0.1 mm 7 mps 732 mmHg 75%
10:00 +11°C° 0.1 mm 9 mps 732 mmHg 69%
11:00 +11°C° 0.2 mm 9 mps 733 mmHg 69%
12:00 +11°C° 0.2 mm 9 mps 733 mmHg 68%
13:00 +11°C° 0.2 mm 8 mps 733 mmHg 68%
14:00 +11°C° 0.1 mm 9 mps 734 mmHg 66%
15:00 +10°C° 0.1 mm 9 mps 734 mmHg 65%
16:00 +10°C° 0.1 mm 9 mps 734 mmHg 64%
17:00 +7°C° 0 mm 8 mps 735 mmHg 69%
18:00 +5°C° 0 mm 8 mps 736 mmHg 75%
19:00 +3°C° 0 mm 7 mps 737 mmHg 80%
20:00 +2°C° 0 mm 7 mps 738 mmHg 79%
21:00 +2°C° 0 mm 6 mps 738 mmHg 78%
22:00 +2°C° 0 mm 6 mps 739 mmHg 78%
23:00 +2°C° 0 mm 6 mps 740 mmHg 79%

Day after tomorrow, 8 May, Saturday

Time Temperature Precipitation Wind Pressure Humidity
00:00 +2°C° 0 mm 6 mps 740 mmHg 80%
01:00 +2°C° 0 mm 6 mps 741 mmHg 81%
02:00 +2°C° 0 mm 6 mps 741 mmHg 79%
03:00 +2°C° 0 mm 6 mps 741 mmHg 78%
04:00 +2°C° 0 mm 6 mps 742 mmHg 77%
05:00 +2°C° 0 mm 6 mps 742 mmHg 75%
06:00 +3°C° 0 mm 6 mps 743 mmHg 74%
07:00 +4°C° 0 mm 6 mps 743 mmHg 73%
08:00 +5°C° 0 mm 6 mps 743 mmHg 68%
09:00 +7°C° 0 mm 6 mps 743 mmHg 62%
10:00 +8°C° 0 mm 6 mps 743 mmHg 57%
11:00 +8°C° 0.1 mm 6 mps 743 mmHg 56%
12:00 +9°C° 0.1 mm 6 mps 743 mmHg 56%
13:00 +9°C° 0.1 mm 6 mps 743 mmHg 55%
14:00 +10°C° 0.1 mm 5 mps 743 mmHg 54%
15:00 +10°C° 0.1 mm 5 mps 743 mmHg 54%
16:00 +10°C° 0.1 mm 5 mps 743 mmHg 54%
17:00 +10°C° 0 mm 4 mps 743 mmHg 59%
18:00 +8°C° 0 mm 3 mps 744 mmHg 65%
19:00 +7°C° 0 mm 2 mps 744 mmHg 71%
20:00 +7°C° 0 mm 1 mps 744 mmHg 72%
21:00 +6°C° 0 mm 1 mps 744 mmHg 74%
22:00 +6°C° 0 mm 1 mps 745 mmHg 75%
23:00 +5°C° 0 mm 1 mps 745 mmHg 77%

9 May, Sunday

Time Temperature Precipitation Wind Pressure Humidity
00:00 +5°C° 0 mm 1 mps 745 mmHg 79%
01:00 +4°C° 0 mm 1 mps 745 mmHg 81%
02:00 +4°C° 0 mm 1 mps 745 mmHg 81%
03:00 +3°C° 0 mm 2 mps 745 mmHg 81%
04:00 +3°C° 0 mm 2 mps 745 mmHg 82%
05:00 +5°C° 0 mm 2 mps 745 mmHg 76%
06:00 +7°C° 0 mm 3 mps 745 mmHg 71%
07:00 +9°C° 0 mm 3 mps 745 mmHg 65%
08:00 +11°C° 0 mm 4 mps 744 mmHg 60%
09:00 +12°C° 0 mm 4 mps 744 mmHg 55%
10:00 +14°C° 0 mm 4 mps 744 mmHg 50%
11:00 +15°C° 0 mm 4 mps 744 mmHg 48%
12:00 +17°C° 0 mm 4 mps 744 mmHg 47%
13:00 +18°C° 0 mm 4 mps 743 mmHg 45%
14:00 +19°C° 0 mm 3 mps 743 mmHg 46%
15:00 +19°C° 0 mm 3 mps 743 mmHg 47%
16:00 +20°C° 0 mm 2 mps 742 mmHg 49%
17:00 +18°C° 0 mm 2 mps 742 mmHg 57%
18:00 +14°C° 0 mm 3 mps 742 mmHg 65%
19:00 +12°C° 0 mm 3 mps 742 mmHg 73%
20:00 +11°C° 0 mm 3 mps 742 mmHg 74%
21:00 +10°C° 0 mm 3 mps 742 mmHg 74%
22:00 +9°C° 0 mm 3 mps 742 mmHg 74%
23:00 +8°C° 0 mm 2 mps 741 mmHg 76%

10 May, Monday

Time Temperature Precipitation Wind Pressure Humidity
00:00 +8°C° 0 mm 2 mps 741 mmHg 78%
01:00 +7°C° 0 mm 2 mps 741 mmHg 80%
02:00 +7°C° 0 mm 2 mps 741 mmHg 81%
03:00 +6°C° 0 mm 2 mps 741 mmHg 82%
04:00 +6°C° 0 mm 2 mps 741 mmHg 83%
05:00 +8°C° 0 mm 2 mps 741 mmHg 79%
06:00 +10°C° 0 mm 3 mps 741 mmHg 74%
07:00 +12°C° 0 mm 3 mps 741 mmHg 69%
08:00 +14°C° 0 mm 3 mps 741 mmHg 64%
09:00 +17°C° 0 mm 3 mps 741 mmHg 60%
10:00 +19°C° 0 mm 4 mps 741 mmHg 55%
11:00 +20°C° 0 mm 3 mps 740 mmHg 53%
12:00 +22°C° 0 mm 3 mps 740 mmHg 50%
13:00 +24°C° 0 mm 3 mps 740 mmHg 48%
14:00 +24°C° 0 mm 3 mps 740 mmHg 51%
15:00 +24°C° 0 mm 3 mps 740 mmHg 54%
16:00 +23°C° 0 mm 4 mps 739 mmHg 57%
17:00 +21°C° 0 mm 3 mps 739 mmHg 64%
18:00 +19°C° 0 mm 3 mps 739 mmHg 70%
19:00 +17°C° 0 mm 2 mps 739 mmHg 77%
20:00 +16°C° 0 mm 2 mps 739 mmHg 79%
21:00 +15°C° 0 mm 2 mps 739 mmHg 81%
22:00 +14°C° 0 mm 2 mps 739 mmHg 83%
23:00 +13°C° 0 mm 2 mps 739 mmHg 85%

11 May, Tuesday

Time Temperature Precipitation Wind Pressure Humidity
00:00 +13°C° 0 mm 2 mps 738 mmHg 88%
01:00 +11°C° 0 mm 3 mps 738 mmHg 90%
02:00 +11°C° 0 mm 3 mps 738 mmHg 90%
03:00 +11°C° 0 mm 3 mps 737 mmHg 90%
04:00 +11°C° 0 mm 3 mps 737 mmHg 90%
05:00 +13°C° 0 mm 3 mps 737 mmHg 85%
06:00 +14°C° 0 mm 4 mps 737 mmHg 80%
07:00 +17°C° 0 mm 4 mps 737 mmHg 74%
08:00 +19°C° 0 mm 4 mps 737 mmHg 69%
09:00 +21°C° 0 mm 4 mps 737 mmHg 63%
10:00 +23°C° 0 mm 4 mps 737 mmHg 58%
11:00 +25°C° 0 mm 4 mps 737 mmHg 56%
12:00 +26°C° 0 mm 4 mps 737 mmHg 53%
13:00 +27°C° 0 mm 4 mps 737 mmHg 51%
14:00 +27°C° 0 mm 4 mps 737 mmHg 55%
15:00 +27°C° 0 mm 4 mps 737 mmHg 59%
16:00 +26°C° 0 mm 4 mps 736 mmHg 63%
17:00 +23°C° 0 mm 4 mps 736 mmHg 68%
18:00 +21°C° 0 mm 4 mps 736 mmHg 74%
19:00 +19°C° 0 mm 4 mps 736 mmHg 80%
20:00 +18°C° 0 mm 4 mps 736 mmHg 83%
21:00 +17°C° 0 mm 4 mps 736 mmHg 85%
22:00 +16°C° 0 mm 3 mps 735 mmHg 88%
23:00 +14°C° 0 mm 3 mps 735 mmHg 89%
Show more

We Need Your Consent

Meteoprog and our Service Providers may store and access personal data such as cookies, device identifiers or other similar technologies on your device and process such data to personalise content and ads, as well as provide social media features and to analyse the traffic.

  • Store and/or access information on your device

    Cookies, device identifiers or other information can be stored or accessed on your device for the purposes indicated above.

  • Personalised ads and content, ad and content measurement, audience insights, and products development

    Ads and content can be personalised based on a profile. More data can be added to better personalise ads and content. Ad and content performance can be measured. Insights about the audience who saw the ads and content can be derived. Such data can be used to develop or improve user’s experience, systems and software.

By clicking ‘I Agree’ you will allow the use of indicated cookies, device identifiers, web beacons or other similar technologies. Your settings can be changed in the browser on your device.

For certain purposes, legitimate interests may be relied on, rather than consent. You can read more about this in our Privacy and Cookie Policy.